Total_Precipitation_Accumulation
1.57 1.72 1.80 1.85 1.83 1.71 1.72 1.70 1.61 1.39 1.23 1.08 0.95 0.85 0.86 0.94 1.24 1.18 1.02 0.96 0.85 0.75 0.69 0.65 0.63 0.59 0.67 0.80 0.96 1.14 1.25 1.22 1.19 1.18 1.14 1.10 1.10 1.09
1.54 1.66 1.67 1.70 1.72 1.65 1.61 1.67 1.63 1.45 1.25 1.08 0.96 0.90 1.00 0.98 1.17 1.05 1.12 1.20 0.93 0.80 0.73 0.73 0.67 0.58 0.49 0.47 0.51 0.61 0.71 0.78 0.85 0.90 0.91 0.88 0.90 0.93
1.04 1.15 1.36 1.56 1.61 1.61 1.63 1.66 1.66 1.56 1.34 1.22 1.00 0.97 1.12 1.13 1.13 1.07 1.15 1.20 0.98 0.85 0.70 0.67 0.67 0.61 0.57 0.50 0.45 0.44 0.47 0.51 0.59 0.66 0.73 0.74 0.72 0.74
0.85 0.85 0.95 1.18 1.34 1.45 1.51 1.54 1.60 1.61 1.49 1.45 1.33 1.10 1.06 1.13 1.25 1.32 1.26 1.23 1.18 1.14 0.99 0.79 0.71 0.66 0.62 0.57 0.49 0.42 0.41 0.42 0.44 0.48 0.53 0.63 0.74 0.76
0.79 0.81 0.87 0.97 1.12 1.20 1.31 1.41 1.50 1.62 1.61 1.44 1.46 1.39 1.20 1.18 1.23 1.31 1.37 1.46 1.34 1.27 1.32 1.14 0.93 0.82 0.76 0.69 0.60 0.51 0.47 0.48 0.48 0.50 0.53 0.57 0.61 0.66
0.77 0.84 0.86 0.87 0.98 1.19 1.33 1.40 1.43 1.53 1.65 1.59 1.52 1.49 1.34 1.27 1.27 1.29 1.42 1.52 1.52 1.32 1.23 1.20 1.13 1.01 0.88 0.80 0.71 0.62 0.58 0.56 0.56 0.57 0.59 0.62 0.62 0.62
0.67 0.68 0.76 0.83 0.86 1.00 1.17 1.40 1.42 1.52 1.59 1.66 1.58 1.44 1.32 1.23 1.18 1.20 1.29 1.48 1.54 1.52 1.45 1.27 1.15 0.98 0.87 0.83 0.81 0.77 0.69 0.64 0.63 0.68 0.70 0.70 0.70 0.69
0.67 0.69 0.69 0.70 0.72 0.76 0.80 1.05 1.24 1.35 1.45 1.47 1.52 1.39 1.27 1.20 1.28 1.28 1.22 1.28 1.39 1.42 1.33 1.39 1.36 1.17 1.02 0.89 0.94 0.99 0.94 0.87 0.76 0.71 0.73 0.76 0.78 0.79
0.61 0.70 0.74 0.72 0.78 0.86 0.82 0.86 0.95 1.03 1.14 1.26 1.30 1.24 1.21 1.16 1.24 1.28 1.25 1.20 1.12 1.21 1.22 1.29 1.35 1.24 1.11 1.00 0.99 0.96 0.94 0.91 0.84 0.76 0.72 0.71 0.75 0.79
0.61 0.62 0.73 0.79 0.84 0.99 0.98 1.06 0.99 0.89 0.87 0.92 1.06 1.12 1.07 1.17 1.26 1.42 1.47 1.34 1.24 1.27 1.25 1.18 1.14 1.09 1.02 1.02 1.02 0.89 0.84 0.84 0.84 0.80 0.73 0.68 0.66 0.70
0.58 0.61 0.73 0.83 0.96 1.07 1.11 1.14 1.04 0.94 0.97 1.05 1.13 1.19 1.21 1.27 1.33 1.40 1.45 1.43 1.34 1.31 1.21 1.08 1.00 0.99 1.00 0.97 0.94 0.94 0.89 0.85 0.82 0.81 0.79 0.76 0.76 0.81
0.62 0.63 0.85 0.86 0.94 0.99 1.04 1.16 1.18 1.04 0.97 1.00 1.05 1.08 1.07 1.16 1.35 1.37 1.47 1.53 1.39 1.31 1.21 1.06 1.01 1.12 1.18 1.05 0.91 0.86 0.85 0.92 0.91 0.87 0.85 0.84 0.88 0.85
0.58 0.62 0.60 0.72 0.74 0.84 0.96 1.03 1.24 1.12 1.05 1.06 1.05 0.95 0.92 0.98 1.11 1.28 1.41 1.48 1.41 1.21 1.11 1.10 1.09 1.11 1.08 1.00 0.93 0.88 0.85 0.84 0.86 0.86 0.88 0.92 0.96 0.91
0.40 0.52 0.52 0.60 0.65 0.72 0.74 0.91 1.09 1.06 1.00 1.07 1.07 1.00 0.91 0.90 0.93 1.00 1.16 1.23 1.21 1.17 1.11 1.06 1.03 1.01 0.99 0.90 0.86 0.89 0.92 0.87 0.85 0.86 0.85 0.97 1.02 1.07
0.26 0.41 0.49 0.56 0.55 0.55 0.67 0.85 0.91 0.96 1.08 1.05 1.06 1.00 0.91 0.88 0.82 0.85 0.96 1.04 1.03 1.00 1.01 1.01 1.05 1.03 0.99 0.90 0.79 0.76 0.86 0.93 0.90 0.89 0.89 0.91 0.87 0.91
0.25 0.38 0.50 0.57 0.55 0.55 0.62 0.75 0.81 0.94 1.08 1.01 0.98 0.92 0.85 0.86 0.83 0.83 0.86 0.92 0.98 0.94 0.92 0.92 1.06 1.22 1.20 1.08 1.02 0.93 0.88 0.89 0.89 0.94 0.98 0.97 0.97 0.96
0.32 0.49 0.63 0.65 0.65 0.61 0.65 0.75 0.74 0.72 0.81 0.81 0.84 0.85 0.83 0.82 0.79 0.73 0.76 0.79 0.83 0.80 0.80 0.79 0.80 0.88 1.02 1.09 1.10 1.04 1.04 1.06 1.04 1.08 1.10 1.02 0.94 0.94
0.51 0.69 0.81 0.89 0.88 0.80 0.76 0.75 0.69 0.67 0.67 0.70 0.78 0.79 0.76 0.79 0.78 0.72 0.72 0.75 0.77 0.74 0.71 0.67 0.69 0.76 0.84 0.88 0.82 0.80 0.84 0.90 0.93 1.01 1.09 1.05 0.93 0.86
0.80 0.84 0.87 0.91 0.93 0.87 0.76 0.68 0.58 0.52 0.54 0.61 0.64 0.66 0.68 0.69 0.74 0.73 0.72 0.70 0.67 0.65 0.64 0.61 0.64 0.69 0.77 0.75 0.66 0.60 0.69 0.77 0.83 0.88 0.94 0.89 0.79 0.75
0.83 0.86 0.93 0.92 0.88 0.76 0.63 0.53 0.45 0.43 0.46 0.48 0.48 0.46 0.52 0.57 0.62 0.67 0.69 0.67 0.62 0.60 0.60 0.60 0.63 0.68 0.73 0.72 0.66 0.58 0.61 0.70 0.74 0.78 0.80 0.83 0.78 0.81
0.48 0.54 0.58 0.59 0.54 0.48 0.42 0.39 0.35 0.34 0.36 0.38 0.40 0.41 0.45 0.47 0.48 0.53 0.61 0.66 0.67 0.64 0.62 0.58 0.58 0.66 0.69 0.74 0.71 0.58 0.53 0.63 0.71 0.71 0.72 0.80 0.82 0.80
0.24 0.25 0.27 0.27 0.27 0.28 0.29 0.31 0.33 0.34 0.36 0.39 0.41 0.42 0.45 0.48 0.46 0.47 0.52 0.58 0.60 0.62 0.62 0.62 0.65 0.70 0.71 0.74 0.67 0.58 0.52 0.52 0.63 0.79 0.80 0.77 0.72 0.67
0.20 0.21 0.21 0.22 0.23 0.26 0.30 0.33 0.35 0.36 0.36 0.39 0.42 0.42 0.43 0.47 0.49 0.51 0.53 0.56 0.59 0.60 0.62 0.63 0.67 0.72 0.72 0.69 0.65 0.60 0.57 0.54 0.55 0.64 0.74 0.87 0.78 0.62